Regional Weather Roundup
Issued by NWS

Home | Current Version | Previous Version | Text Only | Print | Product List | Glossary Off
Versions: 1 2 3 4 5 6 7 8 9 10 11 12 13 14 15 16 17 18 19 20 21 22 23 24 25 26 27 28 29 30 31 32 33 34 35 36 37 38 39 40 41 42 43 44 45 46 47 48 49 50

000
ASUS43 KDMX 210806
RWRIA

WEATHER ROUNDUP FOR IOWA
NATIONAL WEATHER SERVICE DES MOINES IA
200 AM CST TUE NOV 21 2017

NOTE: "FAIR" INDICATES FEW OR NO CLOUDS BELOW 12,000 FEET WITH NO
SIGNIFICANT WEATHER AND/OR OBSTRUCTIONS TO VISIBILITY.

* - THESE STATIONS ARE NOT NWS STATIONS...THUS NOT UNDER NWS
QUALITY CONTROL.  THEY ALSO DO NOT REPORT WEATHER SUCH
AS PRECIPITATION OR FOG.

IAZ001>003-012>014-020>022-031>034-043>046-210900-
   NORTHWEST IOWA

CITY           SKY/WX    TMP DP  RH WIND       PRES   REMARKS
CARROLL *      CLOUDY    45  27  49 NW14      29.71R
CHEROKEE *     PTCLDY    39  26  61 N9G17     29.77R WCI  32
DENISON *      CLOUDY    45  27  49 N5        29.75R
LE MARS *      CLOUDY    41  27  56 N12       29.78R
ORANGE CITY *  CLOUDY    39  27  60 NW12G20   29.77R WCI  32
SHELDON *      CLOUDY    37  25  60 NW12      29.75R WCI  30
SIOUX CITY     MOCLDY    41  27  57 NW17      29.77R
SPENCER        CLOUDY    39  22  50 NW17      29.74R WCI  30
STORM LAKE *   MOCLDY    39  27  60 N12       29.74R WCI  32
$$

IAZ055>058-069>071-079>083-090>094-210900-
   SOUTHWEST IOWA

CITY           SKY/WX    TMP DP  RH WIND       PRES   REMARKS
ATLANTIC *     CLOUDY    34  30  86 CALM      29.71S
AUDUBON *      CLOUDY    41  28  60 NW6       29.72R
CLARINDA *       N/A     32  28  86 CALM      29.74R
COUNCIL BLFS * PTCLDY    45  27  49 N7        29.71S
CRESTON *      PTCLDY    37  28  70 W9        29.72R WCI  31
HARLAN  *      CLOUDY    34  30  86 CALM      29.75R
LAMONI         CLOUDY    46  31  55 W8        29.70S
RED OAK *      CLOUDY    32  28  86 CALM      29.72S
SHENANDOAH *   PTCLDY    32  28  86 CALM      29.74R
$$

IAZ047>049-059>061-072>074-084-210900-
   CENTRAL IOWA

CITY           SKY/WX    TMP DP  RH WIND       PRES   REMARKS
AMES           PTCLDY    44  29  55 NW12      29.69R
ANKENY *       PTCLDY    45  30  57 W10       29.70R
BOONE *        PTCLDY    45  27  49 NW14      29.68R
CHARITON *     MOCLDY    43  30  61 SW8       29.69R
DES MOINES     CLOUDY    42  30  62 W6        29.69R
GRINNELL*      MOCLDY    39  30  71 W7        29.68R WCI  34
KNOXVILLE *    MOCLDY    43  28  56 W9        29.67S
MARSHALLTOWN   PTCLDY    38  30  73 W10       29.67R WCI  31
NEWTON *       MOCLDY    39  30  70 W10       29.68R WCI  32
PELLA *        MOCLDY    46  31  56 W7        29.69R
PERRY *          N/A     43  26  52 NW6       29.70R
$$

IAZ004>006-015-016-023>025-035-036-210900-
   NORTH CENTRAL IOWA

CITY           SKY/WX    TMP DP  RH WIND       PRES   REMARKS
ALGONA *       CLOUDY    39  25  56 N16G23    29.71R WCI  30
CLARION *      MOCLDY    39  30  70 NW12      29.69R WCI  32
ESTHERVILLE    MOCLDY    36  22  56 NW18G28   29.72R WCI  26
FORT DODGE *   CLOUDY    42  26  53 NW12G18   29.71R
MASON CITY     PTCLDY    38  26  62 NW18      29.68R WCI  28
FOREST CITY *    N/A     37  28  70 NW12G17   29.68R WCI  30
WEBSTER CITY * MOCLDY    41  28  60 N15       29.68R
IOWA FALLS *     N/A     40  31  68 NW10      29.68R WCI  34
$$

IAZ007>011-017>019-026>030-037>042-050>054-066-210900-
   NORTHEAST IOWA

CITY           SKY/WX    TMP DP  RH WIND       PRES   REMARKS
CEDAR RAPIDS   PTCLDY    41  31  67 W10       29.65R
CHARLES CITY * CLEAR     36  28  75 W9        29.65R WCI  29
CLINTON *      PTCLDY    44  33  65 SW15      29.65R
DECORAH *      PTCLDY    39  28  65 VRB6G13   29.60R WCI  35
DUBUQUE        PTCLDY    38  31  76 SW10      29.62R WCI  31
MONTICELLO *   PTCLDY    43  32  65 W6        29.64R
OELWEIN *      PTCLDY    37  32  81 NW12      29.65R WCI  30
WATERLOO       CLEAR     41  28  60 W7        29.65R
$$

IAZ064-065-067-068-078-210900-
   EAST CENTRAL IOWA

CITY           SKY/WX    TMP DP  RH WIND       PRES   REMARKS
DAVENPORT      MOCLDY    45  31  58 SW10      29.68R
IOWA CITY      CLEAR     38  29  70 SW3       29.68R
MT. PLEASANT * CLEAR     41  31  67 SW9       29.70R
MUSCATINE *    CLEAR     46  32  57 SW8       29.68R
QUAD CITIES    CLOUDY    46  31  55 SW9       29.66R
$$

IAZ062-063-075>077-085>089-095>099-210900-
   SOUTHEAST IOWA

CITY           SKY/WX    TMP DP  RH WIND       PRES   REMARKS
BURLINGTON     CLEAR     45  33  63 SW12      29.69S
FAIRFIELD *    CLEAR     46  30  53 SW14      29.68R
FORT MADISON * CLEAR     48  32  53 SW12      29.71R
KEOKUK *       CLEAR     45  32  61 SW10      29.71R
OSKALOOSA *      N/A     43  32  64 SW12      29.68S
OTTUMWA        MOCLDY    48  30  49 W13       29.68R
WASHINGTON *   CLEAR     45  32  61 SW12      29.68R
$$

ABBREVIATIONS USED IN REMARKS
   TC - TEMPERATURES IN CELSIUS
  WCI - WIND CHILL INDEX
   HX - HEAT INDEX
  VSB - VISIBILITY
$$





USA.gov is the U.S. government's official web portal to all federal, state and local government web resources and services.